Location: Unspecified
(41.5000°N, 0.0000°E)
Time: 13:00:47
(UTC+00:00)

ISS - Visible Passes

Search period start: 23 October 2019 00:00
Search period end: 02 November 2019 00:00
Orbit: 411 x 421 km, 51.6° (Epoch: 23 October)

Date Brightness Start Highest point End Pass type
(mag) Time Alt. Az. Time Alt. Az. Time Alt. Az.
23 Oct -1.4 05:34:42 10° S 05:37:29 24° SE 05:40:17 10° ENE visible
24 Oct -0.8 04:47:13 10° SSE 04:49:07 14° SE 04:51:01 10° E visible
25 Oct -3.5 05:33:34 10° SW 05:36:56 70° SE 05:40:17 10° ENE visible
26 Oct -2.5 04:46:50 23° SSW 04:48:25 39° SE 04:51:35 10° ENE visible
27 Oct -1.2 04:00:54 20° ESE 04:00:54 20° ESE 04:02:40 10° E visible
27 Oct -3.3 05:33:50 14° WSW 05:36:31 45° NNW 05:39:46 10° NE visible
28 Oct -3.9 04:47:43 72° WNW 04:47:52 75° NW 04:51:15 10° NE visible
29 Oct -1.1 04:01:26 20° ENE 04:01:26 20° ENE 04:02:38 10° ENE visible
29 Oct -2.3 05:34:21 15° WNW 05:36:15 24° NNW 05:39:05 10° NE visible
30 Oct -2.6 04:47:58 31° N 04:47:58 31° N 04:50:36 10° NE visible
31 Oct -0.8 04:01:29 14° NE 04:01:29 14° NE 04:02:04 10° NE visible
31 Oct -1.7 05:34:23 12° NW 05:36:06 17° N 05:38:24 10° NNE visible
01 Nov -1.8 04:47:50 19° N 04:47:50 19° N 04:49:50 10° NNE visible
